Weather in Fort Shevchenko

Kazakhstan     44°30′26″N   50°15′46″E
temp.,
°C
wind,
m/s
gust,
m/s
humid.,
%
clouds,
%
prec.,
mm/h
press.,
hPa
HPBL,
m
21 april, wed
wed2123:00+17e4650100 0.0 101258
02:00+18ese5849100 0.0 101290
05:00+17se121952100 0.0 1012299
08:00+15ese111755100 0.0 1015341
11:00+18se131748100 0.0 1015417
14:00+18s101551100 0.0 1016466
17:00+16ssw71262100 0.0 1015312
20:00+13w2481100 0.0 101683
22 april, thu
thu2223:00+13ne3479100 0.0 101753
02:00+15nne3463100 0.0 101747
05:00+14e4755100 0.0 101894
08:00+15se81442100 0.0 1018315
11:00+14sse111478100 0.3 1018376
14:00+15s9106818 0.1 1018283
17:00+14ssw567718 0.1 1019270
20:00+13wsw118198 0.0 1018112
23 april, fri
fri2323:00+13nw1182100 0.1 101860
02:00+14ne2382100 0.1 101657
05:00+13n4584100 0.3 101565
08:00+12nnw568536 0.1 1016167
11:00+12nw897326 0.4 1018407
14:00+12nw91269100 0.0 1018498
17:00+12nw712790 0.0 1019603
20:00+12wnw47800 0.0 1020259
24 april, sat
sat2423:00+12w58830 0.0 1020132
02:00+12w33830 0.0 101929
05:00+11sw33870 0.0 101933
08:00+12wnw228020 0.0 102049
11:00+14nnw3368100 0.0 1020256
14:00+15nnw3360100 0.0 1020397
17:00+15nw335713 0.0 1020445
20:00+15nne33584 0.0 1021154
25 april, sun
sun2523:00+14ne34620 0.0 102136
02:00+13ene33624 0.0 102115
05:00+13ene3358100 0.0 102021
08:00+14ese5753100 0.0 102096
11:00+19se563894 0.0 1019371
14:00+20sse363688 0.0 1017719
17:00+19ssw264334 0.0 1015446
20:00+18s3444100 0.0 1013131